sat.trackr.live / text

‹ back to catalog

STARLINK-35170

NORAD 65532 · 2025-200N

PAYLOAD ACTIVE UNKNOWN

§ Identity

Operator
Country
US
Launch date
2025-09-06
Launch site
AFWTR
Launch vehicle
Mass (kg)
RCS (m²)

Purposes: comms

External: N2YO · Heavens-Above · Gunter

§ Orbital elements

Epoch: 2026-09-20T10:21:55.135296Z

Period
93.90 min
Inclination
97.2871°
Eccentricity
0.0002129
Mean motion
15.33468866 rev/d
Perigee alt
464.0 km
Apogee alt
466.9 km
Semi-major
6,843.6 km
B*
6.1410e-4
RAAN
329.8648°
Arg perigee
96.5971°
Mean anomaly
263.5514°
Rev number
5,863

§ Raw data

STARLINK-351701 65532U 25200N   26263.43188814  .00019818  00000+0  61410-3 0  99972 65532  97.2871 329.8648 0002129  96.5971 263.5514 15.33468866 58636

JSON: /api/v1/satellites/65532 · /tle

For live sub-satellite position, see the globe view (requires WebGL).

§ Visibility from observer

Set your observer location to see the next 7 days of passes ≥ 10°. The values pass through the URL so the page stays shareable.

No JS? Fill the form by hand. The geolocation button needs JavaScript.